Date String (YYYY-MM-DD hh:mm:ss) UTC,Instrument flags,Ambient pressure (hPa),Sample flow (lpm),Bypass flow (lpm),Sample temperature (°C),Ambient temperature (°C),ASC tube jacket temperature (°C),LED temperature (°C),Box temperature (°C),Sample RH (%),Span deviation,Mass concentration (μg/m³),Mass concentration (μg/m³),Mass concentration (μg/m³)
DateTimeUTC,F1_M11,P_M11,Q1_M11,Q2_M11,T1_M11,T2_M11,T3_M11,T4_M11,T5_M11,U1_M11,ZSPAN_M11,X0_M11,X2_M11,X1_M11
2023-05-12 20:00:00,,0830.3,5.00,0.00,27.1,25.9,00.0,35.3,28.8,20.0,0000.0,0000.96,0000.29,0000.12
2023-05-12 20:01:00,,0830.3,5.01,0.00,27.1,25.9,00.0,35.3,28.8,19.5,0000.0,0000.91,0000.29,0000.12
2023-05-12 20:02:00,,0830.3,5.00,0.00,27.1,25.9,00.0,35.3,28.8,19.7,0000.0,0000.90,0000.31,0000.13
2023-05-12 20:03:00,,0830.3,5.00,0.00,27.1,25.9,00.0,35.3,28.8,20.3,0000.0,0000.89,0000.32,0000.14
2023-05-12 20:04:00,,0830.3,4.99,0.00,27.1,25.9,00.0,35.3,28.8,19.4,0000.0,0000.88,0000.33,0000.15
2023-05-12 20:05:00,,0830.3,5.00,0.00,27.1,25.9,00.0,35.3,28.9,19.9,0000.0,0001.04,0000.35,0000.16
2023-05-12 20:06:00,,0830.3,5.00,0.00,27.1,25.9,00.0,35.4,28.9,20.3,0000.0,0001.09,0000.37,0000.17
2023-05-12 20:07:00,,0830.2,5.01,0.00,27.2,25.9,00.0,35.4,28.9,20.6,0000.0,0001.14,0000.40,0000.17
2023-05-12 20:08:00,,0830.3,5.00,0.00,27.2,25.9,00.0,35.4,28.9,19.6,0000.0,0001.12,0000.40,0000.17
2023-05-12 20:09:00,,0830.3,5.00,0.00,27.2,26.0,00.0,35.4,28.9,20.5,0000.0,0001.12,0000.40,0000.17
2023-05-12 20:10:00,,0830.4,5.00,0.00,27.2,26.0,00.0,35.4,28.9,20.6,0000.0,0000.91,0000.37,0000.17
2023-05-12 20:11:00,,0830.4,5.00,0.00,27.2,26.0,00.0,35.4,28.9,21.2,0000.0,0000.83,0000.36,0000.16
2023-05-12 20:12:00,,0830.5,4.98,0.00,27.2,26.0,00.0,35.4,28.9,21.0,0000.0,0000.96,0000.35,0000.15
2023-05-12 20:13:00,,0830.7,5.01,0.00,27.2,26.0,00.0,35.5,29.0,20.7,0000.0,0000.98,0000.31,0000.14
2023-05-12 20:14:00,,0830.6,5.01,0.00,27.3,26.0,00.0,35.5,29.0,21.0,0000.0,0000.93,0000.29,0000.13
2023-05-12 20:15:00,,0830.4,5.00,0.00,27.3,26.0,00.0,35.5,29.0,23.1,0000.0,0001.18,0000.29,0000.13
2023-05-12 20:16:00,,0830.4,4.98,0.00,27.3,26.1,00.0,35.5,29.0,22.3,0000.0,0001.29,0000.25,0000.11
2023-05-12 20:17:00,,0830.5,4.99,0.00,27.3,26.1,00.0,35.5,29.0,21.8,0000.0,0001.21,0000.22,0000.10
2023-05-12 20:18:00,,0830.4,5.01,0.00,27.3,26.1,00.0,35.5,29.0,21.7,0000.0,0001.17,0000.20,0000.09
2023-05-12 20:19:00,,0830.4,5.00,0.00,27.3,26.1,00.0,35.6,29.0,22.3,0000.0,0001.18,0000.19,0000.09
2023-05-12 20:20:00,,0830.4,5.00,0.00,27.3,26.1,00.0,35.6,29.0,22.3,0000.0,0001.18,0000.18,0000.08
2023-05-12 20:21:00,,0830.3,5.00,0.00,27.3,26.1,00.0,35.6,29.1,22.6,0000.0,0001.21,0000.19,0000.08
2023-05-12 20:22:00,,0830.3,5.01,0.00,27.3,26.1,00.0,35.6,29.1,22.5,0000.0,0001.30,0000.23,0000.08
2023-05-12 20:23:00,,0830.5,5.00,0.00,27.3,26.1,00.0,35.6,29.1,21.4,0000.0,0001.37,0000.25,0000.08
2023-05-12 20:24:00,,0830.3,5.01,0.00,27.4,26.1,00.0,35.6,29.1,22.7,0000.0,0002.36,0000.27,0000.09
2023-05-12 20:25:00,,0830.3,5.00,0.00,27.4,26.1,00.0,35.6,29.1,20.5,0000.0,0003.05,0000.26,0000.09
2023-05-12 20:26:00,,0830.3,5.00,0.00,27.4,26.1,00.0,35.7,29.1,20.5,0000.0,0002.84,0000.27,0000.08
2023-05-12 20:27:00,,0830.4,5.01,0.00,27.4,26.1,00.0,35.7,29.1,20.1,0000.0,0002.51,0000.27,0000.09
2023-05-12 20:28:00,,0830.4,5.00,0.00,27.4,26.1,00.0,35.7,29.1,21.1,0000.0,0002.51,0000.27,0000.09
2023-05-12 20:29:00,,0830.4,5.00,0.00,27.4,26.1,00.0,35.7,29.2,20.8,0000.0,0002.52,0000.27,0000.09
2023-05-12 20:30:00,,0830.4,5.00,0.00,27.4,26.1,00.0,35.7,29.2,21.2,0000.0,0002.50,0000.26,0000.09
2023-05-12 20:31:00,,0830.4,5.00,0.00,27.4,26.1,00.0,35.7,29.2,21.7,0000.0,0002.88,0000.30,0000.09
2023-05-12 20:32:00,,0830.4,5.00,0.00,27.4,26.1,00.0,35.7,29.2,22.0,0000.0,0002.90,0000.31,0000.09
2023-05-12 20:33:00,,0830.4,5.00,0.00,27.5,26.1,00.0,35.7,29.2,22.5,0000.0,0002.80,0000.27,0000.09
2023-05-12 20:34:00,,0830.3,5.00,0.00,27.5,26.2,00.0,35.7,29.2,21.7,0000.0,0002.63,0000.25,0000.09
2023-05-12 20:35:00,,0830.3,5.00,0.00,27.5,26.1,00.0,35.8,29.2,21.2,0000.0,0001.53,0000.25,0000.09
2023-05-12 20:36:00,,0830.4,5.00,0.00,27.5,26.1,00.0,35.8,29.2,22.0,0000.0,0001.02,0000.28,0000.09
2023-05-12 20:37:00,,0830.4,5.00,0.00,27.5,26.1,00.0,35.8,29.2,22.6,0000.0,0001.04,0000.30,0000.09
2023-05-12 20:38:00,,0830.7,5.00,0.00,27.5,26.2,00.0,35.8,29.2,22.8,0000.0,0001.17,0000.32,0000.10
2023-05-12 20:39:00,,0830.6,5.00,0.00,27.5,26.2,00.0,35.8,29.2,22.2,0000.0,0001.21,0000.34,0000.10
2023-05-12 20:40:00,,0830.7,5.00,0.00,27.5,26.2,00.0,35.8,29.2,21.7,0000.0,0001.23,0000.36,0000.12
2023-05-12 20:41:00,,0830.7,4.99,0.00,27.5,26.2,00.0,35.8,29.3,22.0,0000.0,0001.23,0000.37,0000.13
2023-05-12 20:42:00,,0830.9,5.00,0.00,27.5,26.2,00.0,35.8,29.2,21.1,0000.0,0000.86,0000.34,0000.14
2023-05-12 20:43:00,,0830.7,5.00,0.00,27.5,26.2,00.0,35.8,29.3,21.3,0000.0,0001.05,0000.36,0000.15
2023-05-12 20:44:00,,0830.8,5.00,0.00,27.6,26.2,00.0,35.9,29.3,21.9,0000.0,0001.18,0000.38,0000.15
2023-05-12 20:45:00,,0830.9,5.00,0.00,27.6,26.3,00.0,35.9,29.3,21.5,0000.0,0001.19,0000.39,0000.16
2023-05-12 20:46:00,,0830.8,5.00,0.00,27.6,26.3,00.0,35.9,29.3,21.1,0000.0,0001.09,0000.38,0000.16
2023-05-12 20:47:00,,0830.9,5.01,0.00,27.6,26.3,00.0,35.9,29.3,20.9,0000.0,0001.10,0000.35,0000.16
2023-05-12 20:48:00,,0830.8,5.00,0.00,27.6,26.3,00.0,35.9,29.3,20.9,0000.0,0001.06,0000.32,0000.15
2023-05-12 20:49:00,,0830.8,5.00,0.00,27.6,26.4,00.0,35.9,29.4,21.2,0000.0,0001.04,0000.30,0000.15
2023-05-12 20:50:00,,0830.8,4.99,0.00,27.6,26.4,00.0,35.9,29.4,21.8,0000.0,0001.20,0000.30,0000.14
2023-05-12 20:51:00,,0830.7,5.00,0.00,27.7,26.4,00.0,35.9,29.4,21.0,0000.0,0001.67,0000.28,0000.12
2023-05-12 20:52:00,,0830.7,5.00,0.00,27.7,26.4,00.0,35.9,29.4,20.6,0000.0,0001.74,0000.27,0000.11
2023-05-12 20:53:00,,0830.7,5.00,0.00,27.7,26.4,00.0,36.0,29.4,21.6,0000.0,0001.71,0000.25,0000.10
2023-05-12 20:54:00,,0830.8,5.00,0.00,27.7,26.4,00.0,36.0,29.4,20.7,0000.0,0001.53,0000.22,0000.09
2023-05-12 20:55:00,,0830.8,5.00,0.00,27.7,26.4,00.0,36.0,29.4,20.4,0000.0,0001.33,0000.17,0000.09
2023-05-12 20:56:00,,0830.8,5.00,0.00,27.7,26.4,00.0,36.0,29.4,21.7,0000.0,0001.29,0000.16,0000.08
2023-05-12 20:57:00,,0830.8,5.00,0.00,27.7,26.4,00.0,36.0,29.4,21.6,0000.0,0001.27,0000.15,0000.08
2023-05-12 20:58:00,,0830.7,5.00,0.00,27.7,26.4,00.0,36.0,29.4,20.7,0000.0,0001.15,0000.15,0000.07
2023-05-12 20:59:00,,0830.7,5.00,0.00,27.8,26.5,00.0,36.0,29.4,21.4,0000.0,0001.21,0000.15,0000.07
